Location: Felsheim
(48.7267°N, 10.7386°E)
Time: 06:47:18
(UTC+00:00)

STARLINK-1189 - Pass Details

Date: 09 April 2020
Orbit: 378 x 381 km, 53.0° (Epoch: 25 May)

Event Time Altitude Azimuth Distance (km) Brightness Sun altitude
Rises 18:17:52 0° 294° (WNW) 2,264 9.4 -3.6°
Reaches altitude 10° 18:19:57 10° 298° (WNW) 1,408 7.5 -4.0°
Maximum altitude 18:23:04 61° 20° (NNE) 440 3.2 -4.5°
Drops below altitude 10° 18:26:10 10° 102° (ESE) 1,402 5.0 -4.9°
Enters shadow 18:26:48 - 103° (ESE) 1,663 5.4 -5.0°
